Regional Weather Roundup
Issued by NWS

Home | Current Version | Previous Version | Text Only | Print | Product List | Glossary On
Versions: 1 2 3 4 5 6 7 8 9 10 11 12 13 14 15 16 17 18 19 20 21 22 23 24 25 26 27
000
ASUS42 KFFC 240503
RWRGA
WEATHER ROUNDUP FOR GEORGIA
NATIONAL WEATHER SERVICE PEACHTREE CITY GA
100 AM EDT SUN JUL 24 2016

NOTE: "FAIR" INDICATES FEW OR NO CLOUDS BELOW 12,000 FEET WITH NO
SIGNIFICANT WEATHER AND/OR OBSTRUCTIONS TO VISIBILITY.

* = USE WITH CAUTION. THE STATIONS MARKED WITH AN ASTERISK MAY NOT
REPORT WEATHER SUCH AS PRECIPITATION, FOG, OR THUNDER AND ARE NOT
QUALITY CONTROLLED BY NWS.

THE REMARK "TC" DENOTES TEMPERATURE READING IN DEGREES CELSIUS.

GAZ001>058-240600-
NORTH GEORGIA

CITY           SKY/WX    TMP DP  RH WIND       PRES   REMARKS
ATLANTA        MOCLDY    80  73  79 SE3       30.05S
ATHENS         MOCLDY    75  74  96 CALM      30.04S
CHAMBLEE       MOCLDY    77  72  84 CALM      30.05S
PEACHTREE CITY CLOUDY    74  73  97 CALM      30.05R
ROME           MOCLDY    74  73  97 CALM      30.04R FOG
WEST ATLANTA   PTCLDY    76  72  87 CALM      30.04S
CARTERSVILLE   PTCLDY    73  73 100 CALM      30.05S


CITY           SKY/WX    TMP DP  RH WIND       PRES   REMARKS
DALTON*        PTCLDY    73  73 100 CALM      30.04S
MARIETTA       PTCLDY    77  73  88 CALM      30.05S
CANTON*        PTCLDY    73  72  94 CALM      30.07S FOG
BLAIRSVILLE*     N/A    N/A N/A N/A MISG      30.12R FOG
$$

GAZ059>098-102>109-240600-
CENTRAL GEORGIA

CITY           SKY/WX    TMP DP  RH WIND       PRES   REMARKS
AUGUSTA-BUSH   PTCLDY    74  72  93 E6        30.01R
AUGUSTA-DANIEL PTCLDY    83  73  72 CALM      30.03R
COLUMBUS       CLOUDY    83  72  69 SW5       30.01R
MACON          CLOUDY    81  70  69 S3        30.02R
ROBINS AFB     CLOUDY    78  72  83 SE3       30.01S


CITY           SKY/WX    TMP DP  RH WIND       PRES   REMARKS
LAGRANGE*      CLOUDY    78  78 100 CALM      30.04R
MILLEDGEVILLE* CLOUDY    79  73  83 CALM      30.02S
$$

GAZ099>101-110>166-240600-
SOUTH GEORGIA

CITY           SKY/WX    TMP DP  RH WIND       PRES   REMARKS
SAVANNAH       CLEAR     81  73  76 S10       30.02S
VALDOSTA       PTCLDY    78  74  87 S8        30.05R
ALMA           MOCLDY    78  72  81 SE6       30.02F
ST SIMONS      CLEAR     83  75  77 SW6       30.03S HX  90
FT STEWART     CLEAR     78  72  79 CALM      30.01S
ALBANY         MOCLDY    79  74  84 S5        30.04S
HUNTER AFB     CLEAR     81  78  91 SW5       30.00S
MOODY AFB      PTCLDY    78  73  83 S6        30.03F
BRUNSWICK      CLEAR     79  77  94 SW6       30.04S


CITY           SKY/WX    TMP DP  RH WIND       PRES   REMARKS
BAINBRIDGE*    PTCLDY    77  73  88 CALM      30.03S
MOULTRIE*      MOCLDY    79  73  83 CALM      30.04F
VIDALIA*       PTCLDY    77  70  78 CALM      30.04R
WAYCROSS*      MOCLDY    82  76  81 S6        30.03F HX  90
DOUGLAS*       CLOUDY    75  72  88 CALM      30.05S
$$




USA.gov is the U.S. government's official web portal to all federal, state and local government web resources and services.